Time,TemperatureF,DewpointF,PressureIn,WindDirection,WindDirectionDegrees,WindSpeedMPH,WindSpeedGustMPH,Humidity,HourlyPrecipIn,Conditions,Clouds,dailyrainin,SoftwareType,DateUTC
2013-06-22 11:02:00,75.0,73.0,30.19,ENE,75,1.0,4.0,94,0.00,,,0.53,,2013-06-22 15:02:00,
2013-06-22 11:12:00,75.0,73.0,30.19,ESE,103,2.0,5.0,94,0.00,,,0.53,,2013-06-22 15:12:00,
2013-06-22 11:34:00,76.0,74.0,30.20,ESE,111,3.0,7.0,93,0.00,,,0.53,,2013-06-22 15:34:00,
2013-06-22 11:43:00,76.0,73.0,30.20,NE,37,3.0,8.0,91,0.00,,,0.53,,2013-06-22 15:43:00,
2013-06-22 11:53:00,76.0,73.0,30.20,NE,37,3.0,9.0,91,0.00,,,0.53,,2013-06-22 15:53:00,
2013-06-22 12:02:00,76.0,73.0,30.20,SSE,158,4.0,8.0,89,0.00,,,0.53,,2013-06-22 16:02:00,
2013-06-22 12:12:00,76.0,72.0,30.20,NE,46,4.0,7.0,88,0.00,,,0.53,,2013-06-22 16:12:00,
2013-06-22 12:22:00,75.0,72.0,30.21,SE,141,4.0,9.0,89,0.00,,,0.53,,2013-06-22 16:22:00,
2013-06-22 12:34:00,73.0,71.0,30.21,South,174,3.0,10.0,93,0.01,,,0.54,,2013-06-22 16:34:00,
2013-06-22 12:43:00,73.0,71.0,30.21,ESE,120,3.0,7.0,93,0.01,,,0.54,,2013-06-22 16:43:00,
2013-06-22 12:52:00,73.0,71.0,30.20,SE,139,2.0,7.0,92,0.01,,,0.54,,2013-06-22 16:52:00,
2013-06-22 13:02:00,75.0,72.0,30.20,ENE,74,2.0,6.0,91,0.01,,,0.54,,2013-06-22 17:02:00,
2013-06-22 13:11:00,76.0,72.0,30.20,SSE,163,2.0,5.0,88,0.01,,,0.54,,2013-06-22 17:11:00,
2013-06-22 13:22:00,78.0,73.0,30.20,NE,42,2.0,5.0,86,0.01,,,0.54,,2013-06-22 17:22:00,
2013-06-22 13:43:00,79.0,73.0,30.20,SE,143,3.0,7.0,82,0.00,,,0.54,,2013-06-22 17:43:00,
2013-06-22 13:52:00,80.0,74.0,30.20,ENE,64,2.0,6.0,82,0.00,,,0.54,,2013-06-22 17:52:00,
2013-06-22 14:02:00,80.0,73.0,30.20,North,358,3.0,7.0,79,0.00,,,0.54,,2013-06-22 18:02:00,
2013-06-22 14:12:00,80.0,72.0,30.19,ENE,63,4.0,10.0,78,0.00,,,0.54,,2013-06-22 18:12:00,
2013-06-22 14:34:00,79.0,72.0,30.19,SSE,159,4.0,7.0,80,0.00,,,0.54,,2013-06-22 18:34:00,
2013-06-22 14:43:00,79.0,72.0,30.19,NNW,347,3.0,10.0,80,0.00,,,0.54,,2013-06-22 18:43:00,
2013-06-22 14:52:00,79.0,72.0,30.19,NE,52,4.0,7.0,80,0.00,,,0.54,,2013-06-22 18:52:00,
2013-06-22 15:01:00,79.0,73.0,30.19,East,98,2.0,6.0,81,0.00,,,0.54,,2013-06-22 19:01:00,
2013-06-22 15:11:00,79.0,73.0,30.19,NE,47,3.0,6.0,81,0.00,,,0.54,,2013-06-22 19:11:00,
2013-06-22 15:22:00,79.0,73.0,30.19,ENE,60,4.0,6.0,82,0.00,,,0.54,,2013-06-22 19:22:00,
2013-06-22 15:43:00,78.0,73.0,30.19,ENE,60,3.0,7.0,84,0.00,,,0.54,,2013-06-22 19:43:00,
2013-06-22 15:53:00,78.0,73.0,30.18,NE,51,3.0,8.0,85,0.00,,,0.54,,2013-06-22 19:53:00,
2013-06-22 16:02:00,78.0,73.0,30.18,NE,51,3.0,8.0,85,0.00,,,0.54,,2013-06-22 20:02:00,
2013-06-22 16:11:00,78.0,73.0,30.18,NE,51,3.0,8.0,85,0.00,,,0.54,,2013-06-22 20:11:00,
2013-06-22 16:22:00,78.0,74.0,30.18,East,80,3.0,7.0,88,0.00,,,0.54,,2013-06-22 20:22:00,
2013-06-22 16:33:00,78.0,74.0,30.18,ENE,63,2.0,7.0,87,0.00,,,0.51,,2013-06-22 20:33:00,
2013-06-22 16:43:00,78.0,74.0,30.18,NNE,20,3.0,8.0,87,0.00,,,0.51,,2013-06-22 20:43:00,
2013-06-22 16:53:00,78.0,73.0,30.18,ENE,70,4.0,6.0,86,0.00,,,0.51,,2013-06-22 20:53:00,
2013-06-22 17:01:00,78.0,73.0,30.18,ENE,58,3.0,5.0,86,0.00,,,0.51,,2013-06-22 21:01:00,
2013-06-22 17:11:00,78.0,74.0,30.18,ESE,117,2.0,5.0,88,0.00,,,0.51,,2013-06-22 21:11:00,
2013-06-22 17:22:00,77.0,73.0,30.18,NE,42,2.0,7.0,88,0.00,,,0.51,,2013-06-22 21:22:00,
2013-06-22 17:34:00,77.0,73.0,30.17,ENE,72,2.0,6.0,88,0.00,,,0.45,,2013-06-22 21:34:00,
2013-06-22 17:43:00,78.0,74.0,30.17,South,183,3.0,8.0,87,0.00,,,0.45,,2013-06-22 21:43:00,
2013-06-22 17:53:00,78.0,73.0,30.17,NE,44,4.0,6.0,85,0.00,,,0.45,,2013-06-22 21:53:00,
2013-06-22 18:02:00,78.0,73.0,30.17,SSE,150,4.0,9.0,86,0.00,,,0.45,,2013-06-22 22:02:00,
2013-06-22 18:12:00,78.0,74.0,30.17,NNE,26,3.0,7.0,87,0.00,,,0.45,,2013-06-22 22:12:00,
2013-06-22 18:23:00,78.0,74.0,30.16,SE,139,2.0,4.0,88,0.00,,,0.45,,2013-06-22 22:23:00,
2013-06-22 18:33:00,78.0,74.0,30.16,SE,139,3.0,7.0,87,0.00,,,0.45,,2013-06-22 22:33:00,
2013-06-22 18:43:00,78.0,74.0,30.16,SSW,212,4.0,6.0,87,0.00,,,0.45,,2013-06-22 22:43:00,
2013-06-22 18:52:00,78.0,74.0,30.16,East,91,4.0,8.0,88,0.00,,,0.45,,2013-06-22 22:52:00,
2013-06-22 19:01:00,78.0,74.0,30.16,ENE,64,3.0,7.0,88,0.00,,,0.45,,2013-06-22 23:01:00,
2013-06-22 19:11:00,77.0,74.0,30.16,ENE,66,3.0,7.0,89,0.00,,,0.45,,2013-06-22 23:11:00,
2013-06-22 19:34:00,77.0,74.0,30.16,SSW,194,4.0,7.0,89,0.00,,,0.45,,2013-06-22 23:34:00,
2013-06-22 19:43:00,76.0,73.0,30.16,ENE,58,4.0,6.0,91,0.00,,,0.45,,2013-06-22 23:43:00,
2013-06-22 19:52:00,76.0,74.0,30.16,ESE,118,2.0,6.0,92,0.00,,,0.45,,2013-06-22 23:52:00,
2013-06-22 20:01:00,76.0,74.0,30.16,SE,139,2.0,4.0,92,0.00,,,0.45,,2013-06-23 00:01:00,
2013-06-22 20:11:00,76.0,74.0,30.16,SSE,155,1.0,4.0,92,0.00,,,0.45,,2013-06-23 00:11:00,
2013-06-22 20:22:00,76.0,74.0,30.16,NE,56,2.0,6.0,92,0.00,,,0.45,,2013-06-23 00:22:00,
2013-06-22 20:34:00,76.0,74.0,30.15,NE,51,2.0,5.0,92,0.00,,,0.45,,2013-06-23 00:34:00,
2013-06-22 20:42:00,76.0,74.0,30.15,NE,41,2.0,5.0,92,0.00,,,0.45,,2013-06-23 00:42:00,
2013-06-22 20:53:00,76.0,74.0,30.15,NE,41,2.0,5.0,92,0.00,,,0.45,,2013-06-23 00:53:00,
2013-06-22 21:01:00,76.0,73.0,30.16,NE,49,2.0,5.0,91,0.00,,,0.45,,2013-06-23 01:01:00,
2013-06-22 21:11:00,76.0,73.0,30.16,NE,53,3.0,6.0,91,0.00,,,0.45,,2013-06-23 01:11:00,
2013-06-22 21:22:00,76.0,73.0,30.16,NE,53,3.0,6.0,91,0.00,,,0.45,,2013-06-23 01:22:00,
2013-06-22 21:32:00,76.0,73.0,30.16,NE,53,3.0,6.0,91,0.00,,,0.45,,2013-06-23 01:32:00,
2013-06-22 21:42:00,76.0,73.0,30.16,NE,53,3.0,6.0,91,0.00,,,0.45,,2013-06-23 01:42:00,
2013-06-22 21:52:00,76.0,73.0,30.16,NE,53,3.0,6.0,91,0.00,,,0.45,,2013-06-23 01:52:00,
2013-06-22 23:01:00,75.0,73.0,30.16,ESE,105,2.0,5.0,93,0.00,,,0.45,,2013-06-23 03:01:00,
2013-06-22 23:11:00,75.0,73.0,30.16,ESE,105,2.0,5.0,93,0.00,,,0.45,,2013-06-23 03:11:00,
2013-06-22 23:21:00,75.0,73.0,30.16,ESE,105,2.0,5.0,93,0.00,,,0.45,,2013-06-23 03:21:00,
2013-06-22 23:31:00,75.0,73.0,30.16,ESE,105,2.0,5.0,93,0.00,,,0.45,,2013-06-23 03:31:00,
2013-06-22 23:41:00,75.0,73.0,30.16,ESE,105,2.0,5.0,93,0.00,,,0.45,,2013-06-23 03:41:00,
2013-06-22 23:52:00,76.0,74.0,30.17,NNE,32,1.0,7.0,94,0.00,,,0.45,,2013-06-23 03:52:00,